Weather History for Greenville, MS

Change the Weather History Date:

Monday, September 9, 2013

  Actual Average Record
Temperature  
Mean Temperature 83 °F 77 °F  
Max Temperature 97 °F 89 °F 103 °F (1925)
Min Temperature 69 °F 66 °F 49 °F (2011)
Degree Days  
Heating Degree Days 0 0  
Month to date heating degree days 0 0  
Since 1 July heating degree days 0 0  
Cooling Degree Days 18 12  
Month to date cooling degree days 154 119  
Year to date cooling degree days 1881 1898  
Growing Degree Days 33 (Base 50)    
Moisture  
Dew Point 68 °F    
Average Humidity 64    
Maximum Humidity 90    
Minimum Humidity 38    
Precipitation  
Precipitation 0.00 in 0.10 in 2.52 in (1949)
Month to date precipitation 2.56 0.86  
Year to date precipitation 31.54 35.42  
Sea Level Pressure  
Sea Level Pressure 30.00 in    
Wind  
Wind Speed 3 mph (SSW)    
Max Wind Speed 9 mph    
Max Gust Speed 15 mph    
Visibility 9 miles    
Events      
T = Trace of Precipitation, MM = Missing Value Source: NWS Daily Summary

Daily Weather History Graph

Daily Weather History Graph

Search for Another Location

Airport:

Trip Planner

Search our weather history database for the weather conditions in past years. The results will help you decide how hot, cold, wet, or windy it might be!

Date:

Astronomy

Sep. 09, 2013 Rise Set
Actual Time 6:43 AM CDT 7:18 PM CDT
Civil Twilight 6:18 AM CDT 7:43 PM CDT
Nautical Twilight 5:48 AM CDT 8:12 PM CDT
Astronomical Twilight 5:18 AM CDT 8:42 PM CDT
Moon 10:50 AM CDT (9/9) 9:51 PM CDT (9/9)
Length of Visible Light 13h 24m
Length of Day
12h 34m
Waxing Crescent, 19% of the Moon is Illuminated
Sep 9
Waxing Crescent
Sep 12
First Quarter
Sep 19
Full
Sep 26
Last Quarter
Oct 4
New

Hourly Weather History & Observations

Time (CDT) Temp. Heat Index Dew Point Humidity Pressure Visibility Wind Dir Wind Speed Gust Speed Precip Events Conditions
12:53 AM 75.0 °F - 68.0 °F 79% 29.96 in 10.0 mi SSW 3.5 mph - N/A   Clear
1:53 AM 75.0 °F - 66.9 °F 76% 29.96 in 10.0 mi Calm Calm - N/A   Clear
2:53 AM 73.0 °F - 66.9 °F 81% 29.95 in 10.0 mi South 3.5 mph - N/A   Clear
3:53 AM 73.0 °F - 66.9 °F 81% 29.96 in 9.0 mi Calm Calm - N/A   Clear
4:53 AM 71.1 °F - 66.9 °F 87% 29.98 in 9.0 mi Calm Calm - N/A   Clear
5:53 AM 71.1 °F - 66.9 °F 87% 30.00 in 9.0 mi South 3.5 mph - N/A   Clear
6:53 AM 69.1 °F - 66.0 °F 90% 30.02 in 6.0 mi South 3.5 mph - N/A   Clear
7:53 AM 73.9 °F - 69.1 °F 85% 30.04 in 6.0 mi Calm Calm - N/A   Haze
8:53 AM 80.1 °F 83.2 °F 70.0 °F 71% 30.05 in 8.0 mi SSW 4.6 mph - N/A   Clear
9:53 AM 84.9 °F 88.2 °F 68.0 °F 57% 30.06 in 9.0 mi WSW 5.8 mph - N/A   Clear
10:53 AM 89.1 °F 92.9 °F 68.0 °F 50% 30.07 in 10.0 mi WSW 9.2 mph - N/A   Clear
11:53 AM 91.0 °F 95.2 °F 68.0 °F 47% 30.06 in 10.0 mi Variable 4.6 mph - N/A   Clear
12:53 PM 93.0 °F 96.4 °F 66.9 °F 42% 30.04 in 10.0 mi Variable 4.6 mph - N/A   Clear
1:53 PM 93.9 °F 97.5 °F 66.9 °F 41% 30.02 in 10.0 mi Variable 4.6 mph - N/A   Clear
2:53 PM 93.9 °F 97.0 °F 66.0 °F 40% 30.00 in 10.0 mi Calm Calm - N/A   Clear
3:53 PM 97.0 °F 100.4 °F 66.0 °F 36% 29.98 in 10.0 mi Calm Calm - N/A   Clear
4:53 PM 96.1 °F 99.3 °F 66.0 °F 37% 29.97 in 10.0 mi West 6.9 mph - N/A   Clear
5:53 PM 93.9 °F 97.0 °F 66.0 °F 40% 29.97 in 10.0 mi West 4.6 mph - N/A   Clear
6:53 PM 90.0 °F 92.8 °F 66.9 °F 46% 29.97 in 10.0 mi WSW 4.6 mph - N/A   Clear
7:53 PM 81.0 °F 85.2 °F 72.0 °F 74% 29.98 in 10.0 mi SSE 3.5 mph - N/A   Clear
8:53 PM 79.0 °F - 71.1 °F 77% 30.00 in 9.0 mi SSE 3.5 mph - N/A   Clear
9:53 PM 79.0 °F - 70.0 °F 74% 30.01 in 9.0 mi Calm Calm - N/A   Clear
10:53 PM 77.0 °F - 70.0 °F 79% 30.02 in 10.0 mi Calm Calm - N/A   Clear
11:53 PM 75.0 °F - 71.1 °F 87% 30.02 in 9.0 mi Calm Calm - N/A   Clear